{"data":{"norad_id":62793,"intl_designator":"2025-016J","name":"QIANFAN-63","alt_names":[],"object_type":"PAYLOAD","status":"ACTIVE","operator":null,"country":"PRC","launch_date":"2025-01-23","launch_site_code":"TAISC","launch_vehicle":null,"mission":null,"orbit_class":"UNKNOWN","rcs_meters":null,"size_class":null,"mass_kg":null,"dimensions":null,"purposes":[],"wikipedia_slug":null,"has_3d_model":false,"image_url":null,"decayed_at":null,"tle_current":{"epoch":"2026-05-25T03:37:55.020000Z","epoch_age_seconds":57867,"freshness":"FRESH","line1":"1 62793U 25016J   26145.15133125  .00000069  00000+0  88360-4 0  9993","line2":"2 62793  88.9734  86.1111 0013979 232.9688 127.0185 13.51004642 69334","mean_motion":13.51004642,"eccentricity":0.0013979,"inclination_deg":88.9734,"raan_deg":86.1111,"arg_perigee_deg":232.9688,"mean_anomaly_deg":127.0185,"bstar":8.836e-5,"rev_number":6933,"period_min":106.58734657405,"perigee_km":1058.154783411,"apogee_km":1078.9742715415,"semimajor_km":7446.7015274763,"source":"CELESTRAK","updated_at":"2026-05-25T13:38:03.252653Z"}}}